Year,Month,Day,Hour,Minute,Value (Times are PST for temperature in C)
2006,09,12,00,00,14.20
2006,09,12,00,01,14.20
2006,09,12,00,02,14.20
2006,09,12,00,03,14.20
2006,09,12,00,04,14.10
2006,09,12,00,05,14.10
2006,09,12,00,06,14.10
2006,09,12,00,07,14.10
2006,09,12,00,08,14.10
2006,09,12,00,09,14.10
2006,09,12,00,10,14.00
2006,09,12,00,11,14.00
2006,09,12,00,12,14.00
2006,09,12,00,13,14.00
2006,09,12,00,14,14.00
2006,09,12,00,15,14.00
2006,09,12,00,16,13.90
2006,09,12,00,17,13.90
2006,09,12,00,18,13.90
2006,09,12,00,19,13.90
2006,09,12,00,20,13.90
2006,09,12,00,21,13.90
2006,09,12,00,22,13.90
2006,09,12,00,23,13.90
2006,09,12,00,24,13.90
2006,09,12,00,25,13.90
2006,09,12,00,26,13.90
2006,09,12,00,27,13.90
2006,09,12,00,28,13.90
2006,09,12,00,29,13.90
2006,09,12,00,30,13.90
2006,09,12,00,31,13.90
2006,09,12,00,32,13.90
2006,09,12,00,33,13.90
2006,09,12,00,34,13.80
2006,09,12,00,35,13.80
2006,09,12,00,36,13.80
2006,09,12,00,37,13.80
2006,09,12,00,38,13.70
2006,09,12,00,39,13.70
2006,09,12,00,40,13.70
2006,09,12,00,41,13.70
2006,09,12,00,42,13.70
2006,09,12,00,43,13.70
2006,09,12,00,44,13.70
2006,09,12,00,45,13.70
2006,09,12,00,46,13.70
2006,09,12,00,47,13.70
2006,09,12,00,48,13.70
2006,09,12,00,49,13.60
2006,09,12,00,50,13.60
2006,09,12,00,51,13.60
2006,09,12,00,52,13.60
2006,09,12,00,53,13.50
2006,09,12,00,54,13.50
2006,09,12,00,55,13.50
2006,09,12,00,56,13.50
2006,09,12,00,57,13.50
2006,09,12,00,58,13.50
2006,09,12,00,59,13.50
2006,09,12,01,00,13.50
2006,09,12,01,01,13.50
2006,09,12,01,02,13.50
2006,09,12,01,03,13.40
2006,09,12,01,04,13.40
2006,09,12,01,05,13.40
2006,09,12,01,06,13.40
2006,09,12,01,07,13.40
2006,09,12,01,08,13.40
2006,09,12,01,09,13.40
2006,09,12,01,10,13.40
2006,09,12,01,11,13.30
2006,09,12,01,12,13.30
2006,09,12,01,13,13.30
2006,09,12,01,14,13.30
2006,09,12,01,15,13.30
2006,09,12,01,16,13.30
2006,09,12,01,17,13.30
2006,09,12,01,18,13.30
2006,09,12,01,19,13.30
2006,09,12,01,20,13.30
2006,09,12,01,21,13.30
2006,09,12,01,22,13.30
2006,09,12,01,23,13.20
2006,09,12,01,24,13.20
2006,09,12,01,25,13.20
2006,09,12,01,26,13.20
2006,09,12,01,27,13.20
2006,09,12,01,28,13.20
2006,09,12,01,29,13.20
2006,09,12,01,30,13.20
2006,09,12,01,31,13.20
2006,09,12,01,32,13.20
2006,09,12,01,33,13.20
2006,09,12,01,34,13.20
2006,09,12,01,35,13.20
2006,09,12,01,36,13.10
2006,09,12,01,37,13.10
2006,09,12,01,38,13.10
2006,09,12,01,39,13.10
2006,09,12,01,40,13.10
2006,09,12,01,41,13.00
2006,09,12,01,42,13.00
2006,09,12,01,43,13.00
2006,09,12,01,44,12.90
2006,09,12,01,45,12.90
2006,09,12,01,46,12.90
2006,09,12,01,47,12.90
2006,09,12,01,48,12.90
2006,09,12,01,49,12.80
2006,09,12,01,50,12.80
2006,09,12,01,51,12.80
2006,09,12,01,52,12.80
2006,09,12,01,53,12.80
2006,09,12,01,54,12.80
2006,09,12,01,55,12.80
2006,09,12,01,56,12.80
2006,09,12,01,57,12.80
2006,09,12,01,58,12.80
2006,09,12,01,59,12.80
2006,09,12,02,00,12.80
2006,09,12,02,01,12.80
2006,09,12,02,02,12.80
2006,09,12,02,03,12.80
2006,09,12,02,04,12.80
2006,09,12,02,05,12.80
2006,09,12,02,06,12.70
2006,09,12,02,07,12.70
2006,09,12,02,08,12.70
2006,09,12,02,09,12.70
2006,09,12,02,10,12.70
2006,09,12,02,11,12.70
2006,09,12,02,12,12.70
2006,09,12,02,13,12.70
2006,09,12,02,14,12.70
2006,09,12,02,15,12.70
2006,09,12,02,16,12.70
2006,09,12,02,17,12.70
2006,09,12,02,18,12.70
2006,09,12,02,19,12.70
2006,09,12,02,20,12.70
2006,09,12,02,21,12.70
2006,09,12,02,22,12.70
2006,09,12,02,23,12.70
2006,09,12,02,24,12.70
2006,09,12,02,25,12.70
2006,09,12,02,26,12.60
2006,09,12,02,27,12.60
2006,09,12,02,28,12.60
2006,09,12,02,29,12.60
2006,09,12,02,30,12.60
2006,09,12,02,31,12.60
2006,09,12,02,32,12.50
2006,09,12,02,33,12.50
2006,09,12,02,34,12.50
2006,09,12,02,35,12.50
2006,09,12,02,36,12.50
2006,09,12,02,37,12.50
2006,09,12,02,38,12.40
2006,09,12,02,39,12.40
2006,09,12,02,40,12.40
2006,09,12,02,41,12.40
2006,09,12,02,42,12.40
2006,09,12,02,43,12.40
2006,09,12,02,44,12.40
2006,09,12,02,45,12.40
2006,09,12,02,46,12.40
2006,09,12,02,47,12.40
2006,09,12,02,48,12.40
2006,09,12,02,49,12.40
2006,09,12,02,50,12.40
2006,09,12,02,51,12.40
2006,09,12,02,52,12.40
2006,09,12,02,53,12.40
2006,09,12,02,54,12.40
2006,09,12,02,55,12.40
2006,09,12,02,56,12.40
2006,09,12,02,57,12.40
2006,09,12,02,58,12.40
2006,09,12,02,59,12.40
2006,09,12,03,00,12.40
2006,09,12,03,01,12.40
2006,09,12,03,02,12.30
2006,09,12,03,03,12.30
2006,09,12,03,04,12.30
2006,09,12,03,05,12.30
2006,09,12,03,06,12.30
2006,09,12,03,07,12.30
2006,09,12,03,08,12.30
2006,09,12,03,09,12.30
2006,09,12,03,10,12.30
2006,09,12,03,11,12.30
2006,09,12,03,12,12.20
2006,09,12,03,13,12.20
2006,09,12,03,14,12.20
2006,09,12,03,15,12.20
2006,09,12,03,16,12.10
2006,09,12,03,17,12.10
2006,09,12,03,18,12.10
2006,09,12,03,19,12.10
2006,09,12,03,20,12.00
2006,09,12,03,21,12.00
2006,09,12,03,22,12.00
2006,09,12,03,23,12.00
2006,09,12,03,24,12.00
2006,09,12,03,25,12.00
2006,09,12,03,26,11.90
2006,09,12,03,27,11.90
2006,09,12,03,28,11.90
2006,09,12,03,29,11.90
2006,09,12,03,30,11.90
2006,09,12,03,31,11.90
2006,09,12,03,32,11.80
2006,09,12,03,33,11.80
2006,09,12,03,34,11.80
2006,09,12,03,35,11.80
2006,09,12,03,36,11.80
2006,09,12,03,37,11.80
2006,09,12,03,38,11.80
2006,09,12,03,39,11.80
2006,09,12,03,40,11.80
2006,09,12,03,41,11.80
2006,09,12,03,42,11.80
2006,09,12,03,43,11.80
2006,09,12,03,44,11.80
2006,09,12,03,45,11.80
2006,09,12,03,46,11.80
2006,09,12,03,47,11.80
2006,09,12,03,48,11.80
2006,09,12,03,49,11.80
2006,09,12,03,50,11.80
2006,09,12,03,51,11.80
2006,09,12,03,52,11.80
2006,09,12,03,53,11.80
2006,09,12,03,54,11.80
2006,09,12,03,55,11.80
2006,09,12,03,56,11.80
2006,09,12,03,57,11.80
2006,09,12,03,58,11.80
2006,09,12,03,59,11.80
2006,09,12,04,00,11.80
2006,09,12,04,01,11.80
2006,09,12,04,02,11.70
2006,09,12,04,03,11.70
2006,09,12,04,04,11.70
2006,09,12,04,05,11.70
2006,09,12,04,06,11.70
2006,09,12,04,07,11.70
2006,09,12,04,08,11.70
2006,09,12,04,09,11.70
2006,09,12,04,10,11.70
2006,09,12,04,11,11.70
2006,09,12,04,12,11.70
2006,09,12,04,13,11.70
2006,09,12,04,14,11.70
2006,09,12,04,15,11.70
2006,09,12,04,16,11.60
2006,09,12,04,17,11.60
2006,09,12,04,18,11.60
2006,09,12,04,19,11.60
2006,09,12,04,20,11.60
2006,09,12,04,21,11.60
2006,09,12,04,22,11.60
2006,09,12,04,23,11.60
2006,09,12,04,24,11.60
2006,09,12,04,25,11.60
2006,09,12,04,26,11.60
2006,09,12,04,27,11.60
2006,09,12,04,28,11.60
2006,09,12,04,29,11.60
2006,09,12,04,30,11.60
2006,09,12,04,31,11.50
2006,09,12,04,32,11.40
2006,09,12,04,33,11.40
2006,09,12,04,34,11.40
2006,09,12,04,35,11.40
2006,09,12,04,36,11.40
2006,09,12,04,37,11.40
2006,09,12,04,38,11.40
2006,09,12,04,39,11.40
2006,09,12,04,40,11.40
2006,09,12,04,41,11.40
2006,09,12,04,42,11.40
2006,09,12,04,43,11.40
2006,09,12,04,44,11.40
2006,09,12,04,45,11.40
2006,09,12,04,46,11.40
2006,09,12,04,47,11.40
2006,09,12,04,48,11.40
2006,09,12,04,49,11.40
2006,09,12,04,50,11.40
2006,09,12,04,51,11.40
2006,09,12,04,52,11.40
2006,09,12,04,53,11.30
2006,09,12,04,54,11.30
2006,09,12,04,55,11.30
2006,09,12,04,56,11.30
2006,09,12,04,57,11.30
2006,09,12,04,58,11.30
2006,09,12,04,59,11.30
2006,09,12,05,00,11.20
2006,09,12,05,01,11.20
2006,09,12,05,02,11.30
2006,09,12,05,03,11.30
2006,09,12,05,04,11.30
2006,09,12,05,05,11.30
2006,09,12,05,06,11.30
2006,09,12,05,07,11.30
2006,09,12,05,08,11.30
2006,09,12,05,09,11.30
2006,09,12,05,10,11.30
2006,09,12,05,11,11.20
2006,09,12,05,12,11.20
2006,09,12,05,13,11.20
2006,09,12,05,14,11.20
2006,09,12,05,15,11.10
2006,09,12,05,16,11.10
2006,09,12,05,17,11.10
2006,09,12,05,18,11.10
2006,09,12,05,19,11.10
2006,09,12,05,20,11.10
2006,09,12,05,21,11.10
2006,09,12,05,22,11.10
2006,09,12,05,23,11.00
2006,09,12,05,24,10.90
2006,09,12,05,25,10.90
2006,09,12,05,26,10.90
2006,09,12,05,27,10.90
2006,09,12,05,28,10.90
2006,09,12,05,29,10.90
2006,09,12,05,30,10.90
2006,09,12,05,31,10.90
2006,09,12,05,32,10.90
2006,09,12,05,33,10.90
2006,09,12,05,34,10.90
2006,09,12,05,35,10.90
2006,09,12,05,36,10.90
2006,09,12,05,37,10.90
2006,09,12,05,38,10.90
2006,09,12,05,39,10.90
2006,09,12,05,40,10.90
2006,09,12,05,41,10.90
2006,09,12,05,42,10.90
2006,09,12,05,43,10.90
2006,09,12,05,44,10.90
2006,09,12,05,45,11.00
2006,09,12,05,46,11.10
2006,09,12,05,47,11.10
2006,09,12,05,48,11.10
2006,09,12,05,49,11.10
2006,09,12,05,50,11.10
2006,09,12,05,51,11.10
2006,09,12,05,52,11.10
2006,09,12,05,53,11.10
2006,09,12,05,54,11.10
2006,09,12,05,55,11.10
2006,09,12,05,56,11.10
2006,09,12,05,57,11.10
2006,09,12,05,58,11.10
2006,09,12,05,59,11.10
2006,09,12,06,00,11.10
2006,09,12,06,01,11.10
2006,09,12,06,02,11.10
2006,09,12,06,03,11.10
2006,09,12,06,04,11.10
2006,09,12,06,05,11.10
2006,09,12,06,06,11.10
2006,09,12,06,07,11.10
2006,09,12,06,08,11.10
2006,09,12,06,09,11.10
2006,09,12,06,10,11.00
2006,09,12,06,11,10.90
2006,09,12,06,12,10.90
2006,09,12,06,13,10.90
2006,09,12,06,14,10.90
2006,09,12,06,15,10.90
2006,09,12,06,16,10.90
2006,09,12,06,17,10.90
2006,09,12,06,18,10.90
2006,09,12,06,19,10.90
2006,09,12,06,20,10.90
2006,09,12,06,21,10.90
2006,09,12,06,22,10.90
2006,09,12,06,23,10.90
2006,09,12,06,24,10.90
2006,09,12,06,25,10.90
2006,09,12,06,26,10.90
2006,09,12,06,27,10.90
2006,09,12,06,28,10.90
2006,09,12,06,29,10.90
2006,09,12,06,30,10.90
2006,09,12,06,31,10.90
2006,09,12,06,32,10.90
2006,09,12,06,33,10.90
2006,09,12,06,34,10.90
2006,09,12,06,35,10.90
2006,09,12,06,36,10.90
2006,09,12,06,37,10.90
2006,09,12,06,38,10.90
2006,09,12,06,39,10.90
2006,09,12,06,40,10.90
2006,09,12,06,41,10.90
2006,09,12,06,42,10.90
2006,09,12,06,43,10.90
2006,09,12,06,44,10.90
2006,09,12,06,45,10.90
2006,09,12,06,46,10.90
2006,09,12,06,47,10.90
2006,09,12,06,48,10.90
2006,09,12,06,49,10.90
2006,09,12,06,50,10.90
2006,09,12,06,51,10.90
2006,09,12,06,52,10.90
2006,09,12,06,53,10.90
2006,09,12,06,54,10.90
2006,09,12,06,55,10.90
2006,09,12,08,54,13.80
2006,09,12,08,55,13.90
2006,09,12,08,56,14.00
2006,09,12,08,57,14.10
2006,09,12,08,58,14.20
2006,09,12,08,59,14.30
2006,09,12,09,00,14.40
2006,09,12,09,01,14.50
2006,09,12,09,02,14.60
2006,09,12,09,03,14.80
2006,09,12,09,04,14.90
2006,09,12,09,05,15.10
2006,09,12,09,06,15.20
2006,09,12,09,07,15.40
2006,09,12,09,08,15.50
2006,09,12,09,09,15.50
2006,09,12,09,10,15.50
2006,09,12,09,11,15.50
2006,09,12,09,12,15.60
2006,09,12,09,13,15.70
2006,09,12,09,14,15.80
2006,09,12,09,15,15.90
2006,09,12,09,16,16.00
2006,09,12,09,17,16.10
2006,09,12,09,18,16.20
2006,09,12,09,19,16.30
2006,09,12,09,20,16.40
2006,09,12,09,21,16.60
2006,09,12,09,22,16.60
2006,09,12,09,23,16.70
2006,09,12,09,24,16.70
2006,09,12,09,25,16.70
2006,09,12,09,26,16.80
2006,09,12,09,27,16.80
2006,09,12,09,28,16.90
2006,09,12,09,29,17.00
2006,09,12,09,30,17.00
2006,09,12,09,31,17.10
2006,09,12,09,32,17.20
2006,09,12,09,33,17.20
2006,09,12,09,34,17.30
2006,09,12,09,35,17.30
2006,09,12,09,36,17.30
2006,09,12,09,37,17.30
2006,09,12,09,38,17.30
2006,09,12,09,39,17.40
2006,09,12,09,40,17.50
2006,09,12,09,41,17.50
2006,09,12,09,42,17.60
2006,09,12,09,43,17.70
2006,09,12,09,44,17.70
2006,09,12,09,45,17.80
2006,09,12,09,46,17.80
2006,09,12,09,47,17.90
2006,09,12,09,48,17.90
2006,09,12,09,49,18.00
2006,09,12,09,50,18.10
2006,09,12,09,51,18.20
2006,09,12,09,52,18.20
2006,09,12,09,53,18.30
2006,09,12,09,54,18.40
2006,09,12,09,55,18.50
2006,09,12,09,56,18.60
2006,09,12,09,57,18.60
2006,09,12,09,58,18.60
2006,09,12,09,59,18.40
2006,09,12,10,00,18.20
2006,09,12,10,01,18.00
2006,09,12,10,02,17.70
2006,09,12,10,03,17.50
2006,09,12,10,04,17.30
2006,09,12,10,05,17.30
2006,09,12,10,06,17.20
2006,09,12,10,07,17.10
2006,09,12,10,08,17.10
2006,09,12,10,09,17.10
2006,09,12,10,10,17.10
2006,09,12,10,11,17.10
2006,09,12,10,12,17.20
2006,09,12,10,13,17.20
2006,09,12,10,14,17.30
2006,09,12,10,15,17.30
2006,09,12,10,16,17.40
2006,09,12,10,17,17.40
2006,09,12,10,18,17.40
2006,09,12,10,19,17.50
2006,09,12,10,20,17.50
2006,09,12,10,21,17.60
2006,09,12,10,22,17.60
2006,09,12,10,23,17.70
2006,09,12,10,24,17.80
2006,09,12,10,25,17.90
2006,09,12,10,26,17.90
2006,09,12,10,27,17.90
2006,09,12,10,28,18.00
2006,09,12,10,29,18.20
2006,09,12,10,30,18.30
2006,09,12,10,31,18.50
2006,09,12,10,32,18.70
2006,09,12,10,33,18.80
2006,09,12,10,34,19.00
2006,09,12,10,35,19.10
2006,09,12,10,36,19.30
2006,09,12,10,37,19.40
2006,09,12,10,38,19.60
2006,09,12,10,39,19.70
2006,09,12,10,40,19.80
2006,09,12,10,41,20.00
2006,09,12,10,42,20.10
2006,09,12,10,43,20.20
2006,09,12,10,44,20.30
2006,09,12,10,45,20.40
2006,09,12,10,46,20.50
2006,09,12,10,47,20.60
2006,09,12,10,48,20.70
2006,09,12,10,49,20.70
2006,09,12,10,50,20.80
2006,09,12,10,51,20.80
2006,09,12,10,52,20.90
2006,09,12,10,53,20.80
2006,09,12,10,54,20.80
2006,09,12,10,55,20.60
2006,09,12,10,56,20.50
2006,09,12,10,57,20.40
2006,09,12,10,58,20.50
2006,09,12,10,59,20.50
2006,09,12,11,00,20.50
2006,09,12,11,01,20.60
2006,09,12,11,02,20.70
2006,09,12,11,03,20.70
2006,09,12,11,04,20.80
2006,09,12,11,05,20.80
2006,09,12,11,06,20.90
2006,09,12,11,07,21.00
2006,09,12,11,08,21.00
2006,09,12,11,09,21.00
2006,09,12,11,10,21.10
2006,09,12,11,11,21.20
2006,09,12,11,12,21.20
2006,09,12,11,13,21.20
2006,09,12,11,14,21.30
2006,09,12,11,15,21.30
2006,09,12,11,16,21.30
2006,09,12,11,17,21.30
2006,09,12,11,18,21.30
2006,09,12,11,19,21.30
2006,09,12,11,20,21.30
2006,09,12,11,21,21.30
2006,09,12,11,22,21.30
2006,09,12,11,23,21.30
2006,09,12,11,24,21.30
2006,09,12,11,25,21.30
2006,09,12,11,26,21.30
2006,09,12,11,27,21.30
2006,09,12,11,28,21.30
2006,09,12,11,29,21.30
2006,09,12,11,30,21.30
2006,09,12,11,31,21.30
2006,09,12,11,32,21.30
2006,09,12,11,33,21.30
2006,09,12,11,34,21.30
2006,09,12,11,35,21.20
2006,09,12,11,36,21.10
2006,09,12,11,37,21.10
2006,09,12,11,38,21.10
2006,09,12,11,39,21.20
2006,09,12,11,40,21.30
2006,09,12,11,41,21.30
2006,09,12,11,42,21.30
2006,09,12,11,43,21.30
2006,09,12,11,44,21.40
2006,09,12,11,45,21.60
2006,09,12,11,46,21.60
2006,09,12,11,47,21.70
2006,09,12,11,48,21.70
2006,09,12,11,49,21.80
2006,09,12,11,50,21.90
2006,09,12,11,51,21.90
2006,09,12,11,52,21.80
2006,09,12,11,53,21.60
2006,09,12,11,54,21.40
2006,09,12,11,55,21.20
2006,09,12,11,56,21.10
2006,09,12,11,57,21.10
2006,09,12,11,58,21.00
2006,09,12,11,59,20.90
2006,09,12,12,00,20.90
2006,09,12,12,01,21.00
2006,09,12,12,02,21.00
2006,09,12,12,03,21.10
2006,09,12,12,04,21.10
2006,09,12,12,05,21.30
2006,09,12,12,06,21.30
2006,09,12,12,07,21.30
2006,09,12,12,08,21.40
2006,09,12,12,09,21.40
2006,09,12,12,10,21.40
2006,09,12,12,11,21.40
2006,09,12,12,12,21.50
2006,09,12,12,13,21.60
2006,09,12,12,14,21.60
2006,09,12,12,15,21.60
2006,09,12,12,16,21.60
2006,09,12,12,17,21.60
2006,09,12,12,18,21.60
2006,09,12,12,19,21.50
2006,09,12,12,20,21.40
2006,09,12,12,21,21.40
2006,09,12,12,22,21.40
2006,09,12,12,23,21.40
2006,09,12,12,24,21.50
2006,09,12,12,25,21.50
2006,09,12,12,26,21.50
2006,09,12,12,27,21.60
2006,09,12,12,28,21.50
2006,09,12,12,29,21.40
2006,09,12,12,30,21.40
2006,09,12,12,31,21.50
2006,09,12,12,32,21.60
2006,09,12,12,33,21.70
2006,09,12,12,34,21.70
2006,09,12,12,35,21.80
2006,09,12,12,36,21.80
2006,09,12,12,37,21.90
2006,09,12,12,38,22.00
2006,09,12,12,39,22.00
2006,09,12,12,40,22.10
2006,09,12,12,41,22.10
2006,09,12,12,42,22.20
2006,09,12,12,43,22.20
2006,09,12,12,44,22.20
2006,09,12,12,45,22.20
2006,09,12,12,46,22.30
2006,09,12,12,47,22.20
2006,09,12,12,48,22.10
2006,09,12,12,49,22.00
2006,09,12,12,50,22.00
2006,09,12,12,51,22.10
2006,09,12,12,52,22.20
2006,09,12,12,53,22.20
2006,09,12,12,54,22.30
2006,09,12,12,55,22.30
2006,09,12,12,56,22.30
2006,09,12,12,57,22.40
2006,09,12,12,58,22.40
2006,09,12,12,59,22.50
2006,09,12,13,00,22.50
2006,09,12,13,01,22.50
2006,09,12,13,02,22.50
2006,09,12,13,03,22.50
2006,09,12,13,04,22.50
2006,09,12,13,05,22.50
2006,09,12,13,06,22.50
2006,09,12,13,07,22.50
2006,09,12,13,08,22.50
2006,09,12,13,09,22.50
2006,09,12,13,10,22.60
2006,09,12,13,11,22.60
2006,09,12,13,12,22.60
2006,09,12,13,13,22.60
2006,09,12,13,14,22.60
2006,09,12,13,15,22.50
2006,09,12,13,16,22.10
2006,09,12,13,17,21.80
2006,09,12,13,18,21.60
2006,09,12,13,19,21.40
2006,09,12,13,20,21.10
2006,09,12,13,21,20.90
2006,09,12,13,22,20.70
2006,09,12,13,23,20.60
2006,09,12,13,24,20.60
2006,09,12,13,25,20.70
2006,09,12,13,26,20.80
2006,09,12,13,27,20.80
2006,09,12,13,28,21.00
2006,09,12,13,29,21.00
2006,09,12,13,30,21.10
2006,09,12,13,31,21.10
2006,09,12,13,32,21.10
2006,09,12,13,33,21.20
2006,09,12,13,34,21.20
2006,09,12,13,35,21.10
2006,09,12,13,36,21.10
2006,09,12,13,37,21.20
2006,09,12,13,38,21.20
2006,09,12,13,39,21.30
2006,09,12,13,40,21.30
2006,09,12,13,41,21.30
2006,09,12,13,42,21.40
2006,09,12,13,43,21.40
2006,09,12,13,44,21.40
2006,09,12,13,45,21.30
2006,09,12,13,46,21.10
2006,09,12,13,47,20.90
2006,09,12,13,48,20.70
2006,09,12,13,49,20.50
2006,09,12,13,50,20.30
2006,09,12,13,51,20.00
2006,09,12,13,52,19.70
2006,09,12,13,53,19.50
2006,09,12,13,54,19.40
2006,09,12,13,55,19.30
2006,09,12,13,56,19.10
2006,09,12,13,57,19.10
2006,09,12,13,58,19.20
2006,09,12,13,59,19.40
2006,09,12,14,00,19.50
2006,09,12,14,01,19.60
2006,09,12,14,02,19.80
2006,09,12,14,03,20.00
2006,09,12,14,04,20.10
2006,09,12,14,05,20.20
2006,09,12,14,06,20.30
2006,09,12,14,07,20.40
2006,09,12,14,08,20.40
2006,09,12,14,09,20.50
2006,09,12,14,10,20.50
2006,09,12,14,11,20.60
2006,09,12,14,12,20.60
2006,09,12,14,13,20.70
2006,09,12,14,14,20.60
2006,09,12,14,15,20.60
2006,09,12,14,16,20.60
2006,09,12,14,17,20.30
2006,09,12,14,18,20.20
2006,09,12,14,19,20.00
2006,09,12,14,20,19.90
2006,09,12,14,21,19.70
2006,09,12,14,22,19.60
2006,09,12,14,23,19.50
2006,09,12,14,24,19.50
2006,09,12,14,25,19.50
2006,09,12,14,26,19.60
2006,09,12,14,27,19.60
2006,09,12,14,28,19.50
2006,09,12,14,29,19.30
2006,09,12,14,30,19.00
2006,09,12,14,31,18.80
2006,09,12,14,32,18.70
2006,09,12,14,33,18.60
2006,09,12,14,34,18.50
2006,09,12,14,35,18.50
2006,09,12,14,36,18.50
2006,09,12,14,37,18.50
2006,09,12,14,38,18.60
2006,09,12,14,39,18.70
2006,09,12,14,40,18.70
2006,09,12,14,41,18.80
2006,09,12,14,42,18.70
2006,09,12,14,43,18.40
2006,09,12,14,44,18.10
2006,09,12,14,45,17.90
2006,09,12,14,46,17.60
2006,09,12,14,47,17.40
2006,09,12,14,48,17.30
2006,09,12,14,49,17.10
2006,09,12,14,50,17.00
2006,09,12,14,51,16.90
2006,09,12,14,52,16.90
2006,09,12,14,53,17.00
2006,09,12,14,54,17.00
2006,09,12,14,55,17.00
2006,09,12,14,56,17.10
2006,09,12,14,57,17.10
2006,09,12,14,58,17.20
2006,09,12,14,59,17.30
2006,09,12,15,00,17.30
2006,09,12,15,01,17.50
2006,09,12,15,02,17.50
2006,09,12,15,03,17.40
2006,09,12,15,04,17.20
2006,09,12,15,05,17.00
2006,09,12,15,06,16.90
2006,09,12,15,07,16.90
2006,09,12,15,08,17.00
2006,09,12,15,09,17.10
2006,09,12,15,10,17.20
2006,09,12,15,11,17.30
2006,09,12,15,12,17.50
2006,09,12,15,13,17.70
2006,09,12,15,14,17.90
2006,09,12,15,15,18.00
2006,09,12,15,16,18.10
2006,09,12,15,17,18.20
2006,09,12,15,18,18.40
2006,09,12,15,19,18.50
2006,09,12,15,20,18.60
2006,09,12,15,21,18.60
2006,09,12,15,22,18.70
2006,09,12,15,23,18.70
2006,09,12,15,24,18.50
2006,09,12,15,25,18.40
2006,09,12,15,26,18.30
2006,09,12,15,27,18.30
2006,09,12,15,28,18.30
2006,09,12,15,29,18.40
2006,09,12,15,30,18.40
2006,09,12,15,31,18.50
2006,09,12,15,32,18.60
2006,09,12,15,33,18.60
2006,09,12,15,34,18.60
2006,09,12,15,35,18.50
2006,09,12,15,36,18.40
2006,09,12,15,37,18.40
2006,09,12,15,38,18.40
2006,09,12,15,39,18.40
2006,09,12,15,40,18.40
2006,09,12,15,41,18.30
2006,09,12,15,42,18.30
2006,09,12,15,43,18.20
2006,09,12,15,44,18.20
2006,09,12,15,45,18.20
2006,09,12,15,46,18.20
2006,09,12,15,47,18.30
2006,09,12,15,48,18.40
2006,09,12,15,49,18.60
2006,09,12,15,50,18.70
2006,09,12,15,51,18.80
2006,09,12,15,52,18.80
2006,09,12,15,53,18.70
2006,09,12,15,54,18.70
2006,09,12,15,55,18.80
2006,09,12,15,56,18.80
2006,09,12,15,57,18.90
2006,09,12,15,58,19.00
2006,09,12,15,59,19.10
2006,09,12,16,00,19.10
2006,09,12,16,01,19.20
2006,09,12,16,02,19.20
2006,09,12,16,03,19.30
2006,09,12,16,04,19.40
2006,09,12,16,05,19.50
2006,09,12,16,06,19.50
2006,09,12,16,07,19.50
2006,09,12,16,08,19.50
2006,09,12,16,09,19.50
2006,09,12,16,10,19.40
2006,09,12,16,11,19.40
2006,09,12,16,12,19.40
2006,09,12,16,13,19.50
2006,09,12,16,14,19.50
2006,09,12,16,15,19.50
2006,09,12,16,16,19.60
2006,09,12,16,17,19.60
2006,09,12,16,18,19.60
2006,09,12,16,19,19.70
2006,09,12,16,20,19.70
2006,09,12,16,21,19.80
2006,09,12,16,22,19.80
2006,09,12,16,23,19.80
2006,09,12,16,24,19.80
2006,09,12,16,25,19.80
2006,09,12,16,26,19.90
2006,09,12,16,27,19.90
2006,09,12,16,28,20.00
2006,09,12,16,29,20.10
2006,09,12,16,30,20.20
2006,09,12,16,31,20.30
2006,09,12,16,32,20.40
2006,09,12,16,33,20.50
2006,09,12,16,34,20.60
2006,09,12,16,35,20.60
2006,09,12,16,36,20.80
2006,09,12,16,37,20.80
2006,09,12,16,38,20.90
2006,09,12,16,39,20.90
2006,09,12,16,40,21.00
2006,09,12,16,41,21.00
2006,09,12,16,42,21.10
2006,09,12,16,43,21.10
2006,09,12,16,44,21.20
2006,09,12,16,45,21.30
2006,09,12,16,46,21.30
2006,09,12,16,47,21.30
2006,09,12,16,48,21.30
2006,09,12,16,49,21.30
2006,09,12,16,50,21.30
2006,09,12,16,51,21.30
2006,09,12,16,52,21.30
2006,09,12,16,53,21.40
2006,09,12,16,54,21.40
2006,09,12,16,55,21.50
2006,09,12,16,56,21.60
2006,09,12,16,57,21.60
2006,09,12,16,58,21.60
2006,09,12,16,59,21.60
2006,09,12,17,00,21.60
2006,09,12,17,01,21.70
2006,09,12,17,02,21.70
2006,09,12,17,03,21.70
2006,09,12,17,04,21.80
2006,09,12,17,05,21.80
2006,09,12,17,06,21.90
2006,09,12,17,07,22.00
2006,09,12,17,08,22.10
2006,09,12,17,09,22.10
2006,09,12,17,10,22.20
2006,09,12,17,11,22.30
2006,09,12,17,12,22.30
2006,09,12,17,13,22.30
2006,09,12,17,14,22.40
2006,09,12,17,15,22.40
2006,09,12,17,16,22.50
2006,09,12,17,17,22.50
2006,09,12,17,18,22.60
2006,09,12,17,19,22.70
2006,09,12,17,20,22.70
2006,09,12,17,21,22.80
2006,09,12,17,22,22.90
2006,09,12,17,23,22.90
2006,09,12,17,24,23.00
2006,09,12,17,25,23.20
2006,09,12,17,26,23.20
2006,09,12,17,27,23.30
2006,09,12,17,28,23.40
2006,09,12,17,29,23.50
2006,09,12,17,30,23.60
2006,09,12,17,31,23.70
2006,09,12,17,32,23.70
2006,09,12,17,33,23.70
2006,09,12,17,34,23.70
2006,09,12,17,35,23.70
2006,09,12,17,36,23.80
2006,09,12,17,37,23.80
2006,09,12,17,38,23.80
2006,09,12,17,39,23.80
2006,09,12,17,40,23.80
2006,09,12,17,41,23.80
2006,09,12,17,42,23.70
2006,09,12,17,43,23.60
2006,09,12,17,44,23.50
2006,09,12,17,45,23.40
2006,09,12,17,46,23.40
2006,09,12,17,47,23.30
2006,09,12,17,48,23.30
2006,09,12,17,49,23.30
2006,09,12,17,50,23.30
2006,09,12,17,51,23.30
2006,09,12,17,52,23.20
2006,09,12,17,53,23.10
2006,09,12,17,54,22.90
2006,09,12,17,55,22.90
2006,09,12,17,56,22.80
2006,09,12,17,57,22.80
2006,09,12,17,58,22.70
2006,09,12,17,59,22.70
2006,09,12,18,00,22.60
2006,09,12,18,01,22.50
2006,09,12,18,02,22.50
2006,09,12,18,03,22.40
2006,09,12,18,04,22.40
2006,09,12,18,05,22.30
2006,09,12,18,06,22.20
2006,09,12,18,07,22.20
2006,09,12,18,08,22.00
2006,09,12,18,09,22.00
2006,09,12,18,10,21.90
2006,09,12,18,11,21.80
2006,09,12,18,12,21.70
2006,09,12,18,13,21.60
2006,09,12,18,14,21.60
2006,09,12,18,15,21.60
2006,09,12,18,16,21.60
2006,09,12,18,17,21.50
2006,09,12,18,18,21.40
2006,09,12,18,19,21.40
2006,09,12,18,20,21.50
2006,09,12,18,21,21.50
2006,09,12,18,22,21.40
2006,09,12,18,23,21.30
2006,09,12,18,24,21.30
2006,09,12,18,25,21.30
2006,09,12,18,26,21.30
2006,09,12,18,27,21.30
2006,09,12,18,28,21.30
2006,09,12,18,29,21.30
2006,09,12,18,30,21.30
2006,09,12,18,31,21.30
2006,09,12,18,32,21.30
2006,09,12,18,33,21.40
2006,09,12,18,34,21.40
2006,09,12,18,35,21.50
2006,09,12,18,36,21.60
2006,09,12,18,37,21.60
2006,09,12,18,38,21.50
2006,09,12,18,39,21.40
2006,09,12,18,40,21.40
2006,09,12,18,41,21.40
2006,09,12,18,42,21.30
2006,09,12,18,43,21.30
2006,09,12,18,44,21.30
2006,09,12,18,45,21.20
2006,09,12,18,46,21.20
2006,09,12,18,47,21.20
2006,09,12,18,48,21.20
2006,09,12,18,49,21.20
2006,09,12,18,50,21.20
2006,09,12,18,51,21.20
2006,09,12,18,52,21.10
2006,09,12,18,53,21.00
2006,09,12,18,54,20.90
2006,09,12,18,55,20.80
2006,09,12,18,56,20.70
2006,09,12,18,57,20.70
2006,09,12,18,58,20.60
2006,09,12,18,59,20.50
2006,09,12,19,00,20.50
2006,09,12,19,01,20.40
2006,09,12,19,02,20.40
2006,09,12,19,03,20.30
2006,09,12,19,04,20.30
2006,09,12,19,05,20.30
2006,09,12,19,06,20.20
2006,09,12,19,07,20.20
2006,09,12,19,08,20.20
2006,09,12,19,09,20.20
2006,09,12,19,10,20.20
2006,09,12,19,11,20.20
2006,09,12,19,12,20.20
2006,09,12,19,13,20.20
2006,09,12,19,14,20.10
2006,09,12,19,15,20.10
2006,09,12,19,16,20.10
2006,09,12,19,17,20.10